Location: Newark
(41.6500°N, 71.4833°W)
Time: 14:43:44
(UTC+00:00)

A-11 Canister half - Pass Details

Date: 28 January 2020
Orbit: 1517 x 1683 km, 47.2° (Epoch: 26 February)

Event Time Altitude Azimuth Distance (km) Brightness Sun altitude
Rises 09:44:07 0° 297° (WNW) 4,670 - -25.8°
Reaches altitude 10° 09:47:11 10° 294° (WNW) 3,682 - -25.2°
Exits shadow 09:52:44 40° 277° (W) 2,115 9.2 -24.2°
Maximum altitude 09:56:13 61° 217° (SW) 1,694 9.0 -23.6°
Drops below altitude 10° 10:05:21 10° 140° (SE) 3,716 11.6 -21.9°
Sets 10:08:28 0° 137° (SE) 4,715 12.3 -21.3°
